Wind_Speed
28 28 27 27 27 27 27 26 25 24 23 21 21 21 21 20 19 18 17 16 15 14 14 13 12 11 10 9 9 9 9 9 9 9 9 8 9 8 8 8 8 8 8 9
32 31 31 31 30 30 30 30 28 27 26 24 23 23 23 23 22 20 18 17 16 16 16 15 14 14 12 11 10 10 10 10 10 10 10 10 10 9 8 8 8 8 9 10
35 34 33 33 31 31 31 31 31 30 28 26 27 27 26 26 26 23 22 21 19 19 19 18 17 16 14 13 13 12 12 11 12 11 11 11 11 11 10 10 10 10 10 11
36 34 36 33 33 33 33 33 33 32 30 28 28 27 28 28 27 26 24 23 21 21 21 20 20 18 17 15 14 14 13 13 13 13 13 13 12 12 12 11 11 11 12 12
37 37 37 34 33 33 34 33 33 33 32 32 31 30 30 28 28 28 26 25 24 23 22 22 21 21 20 18 17 16 15 15 14 14 14 14 14 13 13 13 13 13 14 14
37 37 37 33 31 32 34 35 33 34 35 34 34 34 32 31 32 30 29 27 26 25 24 23 23 23 22 20 19 19 18 17 17 17 16 16 15 15 15 15 15 15 15 16
37 36 36 32 32 32 34 35 34 35 36 35 36 36 34 34 34 32 30 29 28 26 25 24 24 24 24 23 22 21 20 19 18 17 17 17 17 17 17 17 18 17 17 17
38 38 37 33 33 34 34 34 35 35 35 36 36 36 36 35 35 33 32 31 30 28 26 25 26 25 25 24 24 24 23 22 21 20 20 19 19 19 19 19 19 19 19 19
39 39 37 35 35 34 34 35 35 34 35 35 36 36 36 36 35 34 34 31 30 29 28 27 26 26 26 26 25 24 25 24 24 23 22 22 21 21 21 21 21 21 21 20
40 40 39 38 37 36 35 36 36 36 35 35 36 36 37 37 35 34 33 32 31 30 29 28 28 28 27 27 26 26 25 25 25 25 25 24 23 22 23 23 22 22 22 22
39 38 38 38 38 38 37 36 36 36 37 36 36 37 37 36 36 35 32 32 31 31 30 28 28 28 27 27 27 27 27 27 27 27 26 25 25 25 24 24 24 24 23 23
37 37 38 38 38 38 38 38 38 38 38 38 37 36 37 36 36 35 34 33 32 32 30 29 29 29 28 28 28 28 28 27 27 27 27 27 27 27 27 26 26 26 25 25
37 37 38 38 38 39 39 39 38 38 39 39 38 37 37 36 36 37 36 35 35 33 31 31 30 29 28 28 28 28 28 28 28 28 28 28 28 28 28 28 29 28 28 27
36 36 37 37 37 38 39 39 38 38 38 39 38 38 37 37 37 37 37 37 36 35 34 33 32 31 30 29 29 29 29 29 29 29 29 30 30 30 30 30 30 30 30 30
34 35 36 35 36 37 38 37 36 36 37 36 37 38 37 37 37 37 36 37 37 36 36 34 33 32 32 31 31 30 30 30 30 31 31 31 31 31 31 31 31 31 32 32
32 33 34 35 35 35 35 36 36 36 37 36 36 36 36 36 35 35 35 36 36 35 34 34 34 34 33 33 32 32 31 31 32 32 32 32 32 32 32 32 32 33 33 33
32 32 33 33 33 33 33 34 34 35 35 34 34 36 35 35 35 34 35 35 35 34 34 35 35 34 34 34 34 34 33 32 33 33 34 34 34 34 34 34 34 34 34 34
29 29 30 31 31 31 31 32 31 31 32 32 33 34 34 34 33 33 33 34 34 34 33 33 33 34 34 35 35 35 35 34 33 33 34 35 35 35 35 35 36 36 36 36
25 26 27 29 29 29 28 29 30 30 31 32 32 31 31 31 31 31 32 32 32 32 32 33 33 32 32 33 33 34 35 34 34 33 33 34 34 35 36 36 36 36 36 35
21 22 24 24 25 25 25 26 28 29 29 29 30 30 30 30 30 30 30 30 30 31 32 32 32 32 32 32 32 32 32 32 33 33 34 34 35 34 35 35 35 36 35 34
19 20 20 20 21 22 23 24 24 25 27 28 28 28 29 28 28 29 29 28 29 30 31 31 31 31 31 31 32 32 32 32 33 33 34 34 34 34 33 33 32 31 32 32
17 18 18 18 19 21 21 22 23 23 24 25 25 26 27 27 27 27 27 28 27 28 28 29 29 29 30 30 31 32 32 32 32 32 33 34 34 33 32 32 31 29 30 30
15 16 16 17 18 19 20 20 21 21 22 22 23 24 25 26 26 25 25 26 26 26 27 27 28 29 29 30 31 31 31 31 32 32 32 32 32 32 31 31 30 30 30 31
14 14 15 15 15 16 17 18 19 20 21 21 22 23 23 23 23 24 24 24 25 25 25 26 26 27 28 28 29 29 29 30 30 31 31 31 31 31 30 30 29 29 31 31
12 13 13 13 13 13 14 16 17 18 19 19 20 20 21 21 21 21 22 23 23 24 25 25 26 25 25 25 26 27 27 28 29 29 29 30 29 29 28 28 28 29 29 29
10 11 12 11 12 12 13 14 15 15 16 17 17 18 19 20 20 20 20 21 22 23 23 23 23 23 24 25 25 25 25 26 27 28 28 28 27 26 27 27 27 27 28 28
9 9 10 10 9 9 10 11 11 12 14 15 15 16 17 17 17 17 18 19 19 20 20 20 21 21 21 22 23 23 24 24 25 25 25 25 24 24 25 26 27 27 28 29
Wind_Direction
240 237 236 235 237 241 242 244 246 248 252 257 263 268 274 275 281 286 289 294 296 297 299 301 300 296 295 298 301 302 304 304 303 302 303 307 309 302 287 273 270 275 281 283
242 241 241 239 238 240 242 245 247 247 248 251 258 263 269 273 278 282 283 285 288 292 290 292 293 293 290 290 293 294 297 297 295 294 296 300 303 303 292 283 281 280 283 287
245 245 245 242 241 240 240 243 246 247 249 250 252 257 263 268 273 275 279 280 282 286 288 289 290 287 285 284 286 288 290 288 289 289 290 293 294 296 292 287 287 289 285 288
248 247 246 245 243 243 240 240 243 247 249 250 253 256 260 265 267 271 273 274 278 281 284 286 285 284 283 282 278 281 285 288 287 282 283 286 288 288 287 285 286 290 289 286
248 249 248 244 243 244 242 241 241 244 246 248 252 255 261 264 265 268 271 272 275 277 278 279 280 281 281 277 274 276 278 282 281 278 279 282 284 284 283 284 283 285 287 289
248 249 249 246 244 245 246 243 242 245 246 246 248 253 259 263 265 265 268 271 274 275 275 274 274 276 275 271 271 272 274 276 277 273 273 275 278 280 280 281 282 282 284 286
248 250 249 248 246 245 246 245 244 245 246 247 247 249 254 260 263 264 266 268 271 273 274 272 270 270 271 270 269 271 271 272 273 270 271 273 274 277 278 280 281 282 282 283
249 250 250 248 247 246 247 246 246 246 246 248 249 249 252 256 259 261 264 266 267 267 269 269 268 266 266 268 268 269 270 270 271 270 272 275 274 275 277 278 279 280 282 282
251 252 252 249 248 249 248 247 247 248 249 250 250 250 251 253 256 260 262 262 264 266 267 266 265 264 265 267 268 268 267 269 270 270 272 273 273 273 274 276 278 279 280 282
251 251 251 251 250 250 249 248 249 249 250 251 252 250 250 253 256 258 260 262 262 263 265 265 264 264 263 265 266 267 267 267 266 267 270 271 271 273 275 275 276 276 278 281
251 252 252 252 250 250 251 250 249 248 249 251 252 252 251 252 254 256 257 259 261 263 263 263 263 262 263 263 264 265 267 266 265 266 266 268 270 272 275 275 276 275 277 280
251 251 251 251 251 251 252 251 250 251 250 250 251 251 251 252 253 254 256 259 260 262 263 263 263 264 263 262 263 264 267 268 267 265 265 268 270 270 272 273 273 275 276 278
250 251 252 252 252 252 252 251 251 252 251 251 251 251 250 249 249 251 253 256 259 261 263 265 265 264 263 262 262 264 265 267 268 267 266 268 270 271 272 272 273 275 277 278
250 252 252 252 252 252 251 250 250 252 252 252 252 251 250 248 249 250 252 255 257 259 261 263 264 264 263 262 262 263 265 266 266 267 268 268 270 272 273 273 274 275 277 279
251 252 254 253 253 251 249 248 249 251 252 251 250 250 250 250 249 250 252 254 255 257 259 260 260 261 262 262 262 263 264 264 265 266 267 269 270 271 272 273 274 274 275 277
253 253 253 253 252 251 249 248 249 251 252 251 250 250 252 252 249 249 251 254 256 257 257 256 257 259 260 261 262 263 263 263 264 266 266 269 270 271 272 273 274 275 276 277
255 253 252 252 252 251 251 250 251 253 253 252 251 251 253 252 250 250 252 254 256 256 256 255 256 258 259 261 263 263 264 264 265 265 266 268 269 270 271 272 274 275 277 278
254 252 251 252 251 251 252 251 251 251 251 251 251 252 254 252 251 252 253 253 255 255 255 255 256 258 260 261 262 264 265 266 267 266 266 267 269 270 271 271 272 273 274 274
252 251 251 250 250 251 252 251 251 251 252 252 253 255 254 252 253 254 254 253 254 254 255 256 257 258 260 262 263 264 264 265 266 266 267 268 269 270 271 272 272 273 274 273
250 251 251 250 250 251 251 252 252 252 254 254 255 255 253 253 253 255 256 256 255 255 256 257 259 259 261 264 265 265 266 266 266 267 268 269 270 271 271 271 272 271 271 272
251 250 249 251 251 251 252 252 254 253 253 254 254 252 253 256 256 257 257 257 257 257 257 259 260 261 261 262 264 265 266 267 268 268 268 269 271 273 273 271 271 272 271 272
253 254 256 255 254 252 251 251 252 253 251 250 251 253 255 256 258 259 260 259 257 256 257 258 261 263 264 264 265 266 266 267 269 269 270 271 272 272 274 273 272 272 273 272
256 256 256 257 259 257 253 251 250 249 249 250 252 255 257 257 259 261 260 258 257 257 259 261 262 265 266 265 266 267 267 268 268 270 272 273 273 272 273 274 273 273 275 274
259 259 259 258 259 256 252 251 250 250 252 253 255 257 257 257 259 259 257 256 258 260 263 264 265 267 268 268 267 267 268 269 270 271 271 271 272 272 272 273 274 275 275 274
259 259 258 257 258 257 254 253 253 253 255 256 255 256 256 256 256 257 258 258 259 261 264 267 267 266 266 268 268 268 268 270 271 271 271 272 274 274 274 274 275 277 278 278
261 258 259 261 259 257 256 256 257 256 256 256 257 257 256 256 256 258 260 261 261 262 265 268 268 266 266 267 268 269 269 270 272 274 274 274 273 273 274 276 277 277 278 279
265 266 268 267 262 258 259 260 262 264 262 260 262 263 259 257 258 259 261 263 264 265 266 268 271 272 271 270 270 271 271 271 271 272 273 273 272 272 274 275 276 278 279 281
Height
5876 5879 5881 5883 5885 5886 5887 5888 5890 5892 5893 5894 5894 5895 5895 5895 5895 5896 5896 5896 5895 5894 5895 5894 5894 5892 5891 5891 5890 5889 5888 5887 5885 5884 5883 5882 5880 5879 5878 5877 5877 5876 5876 5875
5869 5871 5873 5876 5878 5880 5881 5882 5883 5885 5887 5889 5889 5889 5890 5890 5890 5891 5891 5891 5891 5890 5890 5890 5890 5889 5888 5887 5886 5885 5884 5884 5883 5882 5881 5879 5878 5877 5876 5875 5874 5873 5873 5872
5860 5863 5864 5867 5871 5872 5874 5875 5877 5878 5881 5882 5883 5884 5884 5884 5884 5885 5885 5886 5886 5886 5886 5885 5885 5885 5884 5884 5883 5882 5881 5880 5878 5878 5878 5877 5875 5874 5873 5872 5871 5870 5869 5868
5850 5854 5855 5861 5862 5863 5865 5867 5869 5870 5873 5875 5876 5877 5877 5878 5878 5879 5880 5880 5880 5880 5880 5880 5880 5880 5879 5879 5878 5878 5877 5876 5875 5874 5874 5873 5872 5871 5870 5869 5868 5867 5866 5865
5840 5842 5845 5850 5852 5853 5855 5858 5861 5863 5865 5867 5868 5870 5870 5871 5872 5873 5874 5874 5875 5874 5874 5874 5874 5874 5873 5873 5873 5873 5872 5871 5871 5870 5869 5869 5868 5867 5866 5865 5864 5863 5862 5861
5830 5832 5835 5841 5843 5843 5846 5848 5853 5854 5856 5858 5860 5862 5863 5863 5865 5865 5866 5867 5868 5868 5867 5867 5868 5868 5868 5867 5867 5867 5867 5866 5866 5865 5864 5864 5863 5863 5862 5861 5860 5859 5858 5857
5821 5822 5825 5830 5833 5834 5837 5841 5844 5845 5847 5849 5851 5853 5855 5855 5856 5857 5858 5859 5860 5860 5860 5860 5861 5861 5861 5861 5861 5861 5860 5860 5859 5859 5859 5859 5858 5858 5857 5856 5855 5854 5853 5851
5811 5813 5818 5821 5823 5825 5827 5830 5832 5835 5837 5839 5842 5844 5846 5847 5848 5849 5850 5851 5852 5852 5853 5853 5853 5853 5853 5853 5854 5854 5853 5853 5853 5853 5853 5852 5852 5852 5851 5850 5849 5848 5847 5846
5803 5806 5808 5810 5813 5814 5816 5819 5822 5824 5827 5829 5832 5834 5836 5838 5840 5841 5842 5842 5843 5843 5844 5845 5845 5845 5846 5845 5846 5846 5846 5846 5846 5846 5846 5846 5846 5845 5844 5843 5843 5842 5840 5839
5791 5794 5797 5800 5802 5804 5806 5809 5811 5813 5816 5818 5821 5823 5826 5828 5830 5831 5832 5833 5834 5834 5835 5836 5836 5836 5837 5837 5838 5838 5838 5838 5838 5839 5839 5839 5838 5838 5837 5837 5836 5835 5834 5833
5781 5784 5786 5788 5791 5794 5795 5798 5800 5802 5805 5808 5810 5812 5815 5817 5820 5822 5822 5822 5823 5824 5825 5826 5826 5827 5828 5829 5829 5829 5830 5830 5830 5830 5830 5830 5830 5830 5830 5830 5828 5828 5827 5826
5771 5774 5775 5778 5780 5783 5785 5787 5789 5791 5794 5797 5799 5802 5804 5807 5809 5811 5813 5813 5814 5815 5815 5816 5818 5818 5818 5820 5821 5821 5822 5822 5821 5821 5822 5822 5823 5822 5822 5821 5821 5820 5819 5818
5761 5763 5764 5767 5769 5771 5773 5775 5777 5780 5783 5785 5788 5791 5793 5796 5798 5801 5803 5804 5805 5806 5806 5808 5808 5809 5810 5811 5812 5812 5813 5813 5813 5813 5814 5814 5814 5814 5813 5813 5812 5811 5811 5810
5750 5751 5753 5756 5758 5759 5761 5763 5766 5769 5771 5773 5776 5779 5782 5785 5787 5790 5791 5793 5795 5796 5797 5798 5800 5800 5801 5802 5803 5803 5804 5804 5804 5804 5805 5805 5805 5804 5804 5804 5804 5803 5802 5801
5740 5741 5743 5744 5746 5748 5750 5753 5755 5758 5760 5762 5764 5767 5770 5773 5776 5779 5781 5782 5784 5785 5787 5788 5790 5790 5791 5792 5793 5794 5794 5795 5795 5795 5795 5795 5795 5795 5795 5794 5794 5793 5793 5792
5730 5731 5732 5734 5736 5738 5740 5742 5744 5747 5748 5750 5753 5756 5759 5763 5765 5767 5769 5771 5773 5775 5776 5778 5779 5781 5781 5782 5782 5783 5784 5785 5785 5785 5785 5785 5785 5785 5785 5785 5784 5783 5782 5782
5720 5721 5723 5724 5726 5728 5730 5732 5734 5736 5738 5739 5742 5745 5748 5751 5754 5756 5758 5760 5762 5764 5766 5768 5769 5770 5770 5771 5771 5772 5772 5774 5774 5774 5775 5775 5775 5775 5774 5774 5774 5773 5772 5771
5710 5712 5713 5715 5717 5719 5721 5722 5724 5726 5728 5730 5732 5735 5738 5741 5744 5746 5748 5749 5751 5753 5755 5757 5758 5759 5760 5760 5760 5761 5761 5762 5763 5763 5764 5764 5763 5763 5763 5763 5762 5762 5761 5761
5702 5703 5704 5706 5708 5710 5712 5714 5716 5717 5719 5722 5724 5726 5729 5732 5734 5735 5737 5738 5740 5743 5744 5746 5747 5748 5749 5749 5749 5750 5750 5751 5751 5752 5752 5752 5752 5752 5752 5752 5751 5750 5750 5749
5695 5696 5697 5698 5700 5702 5704 5705 5707 5709 5711 5714 5716 5718 5720 5722 5724 5726 5727 5729 5731 5732 5734 5735 5736 5737 5738 5738 5739 5739 5739 5740 5741 5741 5741 5741 5741 5740 5740 5740 5739 5739 5739 5738
5690 5691 5691 5692 5694 5695 5697 5698 5699 5701 5704 5706 5708 5710 5712 5713 5715 5717 5718 5720 5721 5722 5723 5725 5726 5727 5727 5728 5728 5729 5729 5730 5730 5730 5730 5730 5730 5729 5729 5728 5728 5728 5728 5727
5686 5686 5686 5687 5688 5689 5690 5691 5693 5695 5696 5698 5700 5702 5704 5705 5707 5708 5709 5710 5711 5712 5714 5715 5716 5717 5717 5718 5718 5718 5719 5719 5719 5719 5719 5719 5719 5719 5718 5718 5718 5718 5717 5717
5681 5682 5682 5682 5683 5683 5684 5685 5687 5688 5690 5691 5692 5694 5696 5698 5699 5699 5701 5702 5703 5704 5705 5706 5706 5707 5707 5707 5708 5708 5708 5708 5709 5709 5709 5709 5708 5708 5708 5708 5708 5708 5707 5707
5678 5678 5678 5678 5678 5678 5679 5680 5681 5682 5684 5685 5687 5688 5689 5691 5691 5692 5693 5694 5695 5696 5697 5697 5697 5697 5697 5697 5697 5698 5698 5698 5699 5699 5699 5699 5699 5698 5698 5699 5698 5698 5698 5697
5675 5675 5675 5675 5675 5675 5675 5675 5676 5677 5678 5679 5681 5681 5682 5683 5684 5685 5685 5686 5687 5688 5688 5688 5688 5688 5688 5688 5688 5689 5689 5689 5689 5690 5690 5689 5689 5689 5689 5689 5689 5688 5688 5687
5673 5672 5672 5672 5672 5672 5672 5672 5672 5673 5673 5674 5674 5675 5675 5676 5677 5678 5678 5679 5679 5680 5680 5680 5680 5680 5680 5680 5680 5680 5680 5680 5680 5680 5680 5680 5680 5680 5680 5679 5679 5678 5678 5677
5671 5670 5670 5669 5669 5669 5669 5669 5669 5669 5669 5669 5670 5670 5670 5671 5672 5672 5673 5673 5673 5673 5674 5674 5673 5673 5672 5672 5673 5672 5672 5672 5672 5672 5671 5671 5671 5671 5670 5670 5669 5669 5668 5667